[[{"header":{"parameterUnit":"m.s-1","parameterCategory":2,"la1":30.2991,"la2":30.254,"lo1":-89.0895,"lo2":-89.0444,"dy":0.0017,"dx":0.0017,"nx":28,"ny":28,"refTime":"2024-08-14T21:00:00:Z","depth":"0","parameterNumber":2,"parameterNumberName":"U-component_of_CURRENTS"},"data":[0,0,0,0,0,0,0,0,0,0,0,0,0,0,0,0,0,0,0,0,0,0,0,0,0,0,0,0,0,0,0,0,0,0,0,0,0,0,0,0,0,0,0,0,0,0,0,0,0,0,0,0,0,0,0,0,0,0,-0.1357,-0.1358,0,-0.141,-0.1411,-0.1411,-0.138,-0.1379,-0.1378,-0.1377,-0.1253,-0.1251,-0.1248,0,0,0,0,0,0,0,0,0,0,0,0,0,-0.1186,-0.1189,-0.1357,-0.1358,-0.136,-0.141,-0.1411,-0.1411,-0.138,-0.1379,-0.1378,-0.1377,-0.1254,-0.1251,-0.1248,0,0,0,0,0,0,0,0,0,0,0,0,0,-0.1247,-0.119,-0.1357,-0.1355,-0.1355,-0.141,-0.1411,-0.1411,-0.1381,-0.1379,-0.1378,-0.1376,-0.1255,-0.1251,-0.1248,-0.1255,0,0,-0.1236,-0.1235,0,0,0,0,0,0,0,0,-0.1243,-0.1252,-0.1354,-0.1355,-0.1356,-0.1392,-0.1305,-0.1352,-0.1381,-0.1365,-0.1377,-0.1376,-0.1288,-0.1281,-0.1289,-0.1249,-0.1243,-0.1236,-0.1234,-0.1232,-0.1231,0,0,0,0,0,0,0,-0.1239,-0.125,-0.1373,-0.1355,-0.1357,-0.1337,-0.1343,-0.1314,-0.1326,-0.1366,-0.1366,-0.1381,-0.1286,-0.1293,-0.1285,-0.1241,-0.1236,-0.1233,-0.1231,-0.1229,-0.1248,-0.125,0,0,0,0,0,0,-0.1249,-0.1247,-0.1371,-0.1375,-0.1301,-0.1341,-0.1349,-0.1377,-0.1331,-0.1325,-0.1382,-0.138,-0.13,-0.129,-0.1281,-0.1341,-0.1232,-0.1229,-0.1227,-0.1245,-0.1248,-0.1251,0,0,0,0,0,0,-0.1245,-0.126,-0.1369,-0.1315,-0.1328,-0.1347,-0.1379,-0.1379,-0.1383,-0.1346,-0.1335,-0.1385,-0.1298,-0.1286,-0.1267,-0.1333,-0.1227,-0.1224,-0.1242,-0.1246,-0.125,-0.1426,0,0,0,0,0,0,-0.124,-0.1258,-0.1279,-0.1316,-0.1332,-0.1412,-0.1381,-0.1382,-0.1397,-0.1394,-0.1344,-0.1332,-0.1296,-0.1273,-0.1263,-0.1326,-0.1221,-0.1239,-0.1244,-0.1248,-0.1416,-0.1435,-0.1451,0,0,0,0,0,-0.1234,-0.1275,-0.128,-0.1295,-0.1361,-0.1415,-0.142,-0.1423,-0.1399,-0.1416,-0.1382,-0.1333,-0.1298,-0.1271,-0.126,-0.1324,-0.1236,-0.1242,-0.1248,-0.1409,-0.1431,-0.1451,0,0,0,0,0,0,-0.1208,-0.1278,-0.1283,-0.1342,-0.1379,-0.1411,-0.143,-0.1428,-0.1418,-0.14,-0.1352,-0.1339,-0.1353,-0.1308,-0.128,-0.1345,-0.1266,-0.1269,-0.1392,-0.1412,-0.1429,-0.143,-0.1218,0,0,0,0,0,-0.1216,-0.1261,-0.1318,-0.1359,-0.1384,-0.1404,-0.1423,-0.1426,-0.1428,-0.1422,-0.1394,-0.1369,-0.1374,-0.1365,-0.1347,-0.1368,-0.1324,-0.1407,-0.1424,-0.1439,-0.1434,-0.1501,-0.1525,-0.1271,-0.1271,-0.1271,0,0,-0.1208,-0.1258,-0.1278,-0.1356,-0.138,-0.1433,-0.141,-0.1445,-0.1482,-0.1407,-0.1431,-0.1416,-0.139,-0.1429,-0.1433,-0.1396,-0.1473,-0.1447,-0.146,-0.1445,-0.151,-0.1535,-0.1557,-0.1275,-0.1274,-0.1273,0,0,-0.123,-0.1271,-0.1318,-0.1362,-0.1419,-0.1445,-0.1459,-0.1497,-0.1507,-0.153,-0.1507,-0.1542,-0.1508,-0.1546,-0.155,-0.1649,-0.1561,-0.1634,-0.1727,-0.1795,-0.1817,-0.1836,-0.1746,-0.1756,-0.1649,-0.1649,-0.165,0,-0.1218,-0.1294,-0.1335,-0.1398,-0.1438,-0.1456,-0.151,-0.154,-0.1562,-0.1586,-0.1548,-0.1598,-0.1581,-0.1676,-0.1715,-0.1694,-0.165,-0.1655,-0.182,-0.1838,-0.1855,-0.1759,-0.1767,-0.1658,-0.1657,-0.1656,-0.1656,0,-0.1279,-0.1339,-0.1372,-0.1463,-0.1511,-0.1558,-0.1616,-0.1649,-0.1655,-0.1688,-0.1759,-0.1766,-0.1795,-0.1825,-0.1791,-0.1918,-0.1815,-0.1835,-0.1772,-0.1891,-0.1781,-0.1787,-0.1672,-0.1668,-0.1666,-0.1663,0,0,-0.1252,-0.1388,-0.1397,-0.1444,-0.1547,-0.1586,-0.1668,-0.1753,-0.1797,-0.1844,-0.191,-0.1986,-0.1987,-0.1993,-0.1995,-0.2064,-0.2133,-0.1994,-0.1994,-0.1907,-0.2159,-0.1999,-0.1987,-0.2188,-0.2191,-0.2194,-0.2011,0,-0.1283,-0.1396,-0.1466,-0.1559,-0.1619,-0.168,-0.1752,-0.1826,-0.1874,-0.1937,-0.2007,-0.2051,-0.2055,-0.2063,-0.2153,-0.2136,-0.2164,-0.2171,-0.2051,-0.2044,-0.1895,-0.1998,-0.1857,-0.1678,-0.2016,-0.2017,-0.2017,0,-0.1317,-0.1393,-0.1489,-0.1607,-0.1638,-0.1691,-0.1798,-0.1864,-0.1977,-0.2007,-0.2103,-0.2124,-0.2227,-0.2205,-0.2271,-0.2266,-0.2215,-0.2202,-0.2196,-0.1991,-0.1899,-0.1626,-0.1674,-0.1672,-0.2024,-0.2024,-0.2023,0,-0.1263,-0.1404,-0.1474,-0.1517,-0.1656,-0.1697,-0.176,-0.1876,-0.1927,-0.2038,-0.2064,-0.2199,-0.2213,-0.2267,-0.2222,-0.2251,-0.2234,-0.2274,-0.2068,-0.2048,-0.1875,-0.1836,-0.1915,-0.2314,-0.2315,-0.2315,-0.2316,0,-0.127,-0.1322,-0.1444,-0.1482,-0.155,-0.1653,-0.1726,-0.1805,-0.1908,-0.196,-0.2078,-0.2112,-0.2238,-0.2237,-0.2223,-0.2124,-0.2231,-0.2074,-0.203,-0.1919,-0.1889,-0.1832,-0.1874,-0.2308,-0.231,-0.2311,-0.2312,0,-0.1195,-0.1284,-0.136,-0.149,-0.1526,-0.1559,-0.1675,-0.1723,-0.1824,-0.1887,-0.1911,-0.2036,-0.2024,-0.2064,-0.2086,-0.2067,-0.1971,-0.1943,-0.1717,-0.1653,-0.1498,-0.1553,-0.155,-0.151,-0.1718,-0.1714,-0.171,0,-0.1166,-0.12,-0.1324,-0.1347,-0.1397,-0.1467,-0.1513,-0.165,-0.1699,-0.1818,-0.1828,-0.185,-0.1832,-0.1771,-0.1736,-0.164,-0.1729,-0.1467,-0.1555,-0.1467,-0.1499,-0.1577,-0.1552,-0.1344,-0.1338,-0.1333,-0.1328,0,-0.1096,-0.1132,-0.1183,-0.124,-0.1283,-0.1343,-0.1415,-0.1444,-0.1584,-0.1631,-0.1658,-0.1649,-0.1571,-0.1444,-0.1321,-0.128,-0.1444,-0.1353,-0.1389,-0.1315,-0.1286,-0.1228,-0.1382,-0.1281,-0.1286,-0.129,-0.1292,-0.1294,-0.1011,-0.1013,-0.1073,-0.1112,-0.1159,-0.1185,-0.1172,-0.125,-0.1291,-0.1301,-0.1415,-0.1308,-0.125,-0.1067,-0.1014,-0.0893,-0.1049,-0.0905,-0.0989,-0.1083,-0.1052,-0.102,-0.0819,-0.0821,-0.0823,-0.0825,-0.0826,0,-0.0906,-0.0921,-0.0945,-0.098,-0.0969,-0.1045,-0.1078,-0.1028,-0.0996,-0.1013,-0.1002,-0.0859,-0.0743,-0.0699,-0.0603,-0.0569,-0.0626,-0.0597,-0.0727,-0.0731,-0.0782,-0.0774,-0.0405,-0.0405,-0.0405,-0.0405,-0.0405,-0.0405,-0.0848,-0.0832,-0.0848,-0.0789,-0.0794,-0.0728,-0.0704,-0.0641,-0.0604,-0.0459,-0.0344,-0.0295,-0.0376,-0.0532,-0.0509,-0.0472,-0.056,-0.0507,-0.0619,-0.07,-0.0738,-0.0774,-0.078,-0.0419,-0.0419,-0.0505,-0.0506,-0.0506]},{"header":{"parameterUnit":"m.s-1","parameterCategory":2,"la1":30.2991,"la2":30.254,"lo1":-89.0895,"lo2":-89.0444,"dy":0.0017,"dx":0.0017,"nx":28,"ny":28,"refTime":"2024-08-14T21:00:00:Z","depth":"0","parameterNumber":3,"parameterNumberName":"V-component_of_CURRENTS"},"data":[0,0,0,0,0,0,0,0,0,0,0,0,0,0,0,0,0,0,0,0,0,0,0,0,0,0,0,0,0,0,0,0,0,0,0,0,0,0,0,0,0,0,0,0,0,0,0,0,0,0,0,0,0,0,0,0,0,0,0.0258,0.026,0,0.0487,0.049,0.0493,0.0604,0.0604,0.0604,0.0604,0.0756,0.076,0.0764,0,0,0,0,0,0,0,0,0,0,0,0,0,0.0108,0.0109,0.0257,0.026,0.0263,0.0487,0.049,0.0493,0.0604,0.0604,0.0604,0.0603,0.0755,0.076,0.0765,0,0,0,0,0,0,0,0,0,0,0,0,0,0.024,0.0109,0.0257,0.0343,0.0353,0.0486,0.049,0.0494,0.0604,0.0604,0.0604,0.0603,0.0753,0.0759,0.0765,0.0813,0,0,0.0785,0.0788,0,0,0,0,0,0,0,0,0.0232,0.0246,0.0328,0.0338,0.0349,0.0515,0.0493,0.0596,0.0605,0.0512,0.0604,0.0603,0.0667,0.068,0.0729,0.082,0.0826,0.0786,0.079,0.0792,0.0794,0,0,0,0,0,0,0,0.0223,0.0238,0.0351,0.0331,0.0344,0.0437,0.0453,0.0515,0.0589,0.052,0.0528,0.055,0.0672,0.0722,0.0733,0.0829,0.0786,0.0791,0.0795,0.0798,0.0911,0.091,0,0,0,0,0,0,0.018,0.0228,0.0343,0.0357,0.0286,0.0438,0.0458,0.0464,0.059,0.0609,0.055,0.0554,0.0712,0.0725,0.0738,0.0717,0.0792,0.0798,0.0802,0.0912,0.0911,0.091,0,0,0,0,0,0,0.0176,0.0188,0.0334,0.0297,0.0322,0.044,0.0447,0.0468,0.0513,0.0614,0.0631,0.057,0.0712,0.0729,0.0777,0.0726,0.0801,0.0807,0.0913,0.0912,0.091,0.0728,0,0,0,0,0,0,0.017,0.0184,0.0178,0.0293,0.0322,0.039,0.0448,0.0473,0.0526,0.0534,0.0637,0.0652,0.0713,0.0767,0.0784,0.0737,0.0812,0.0914,0.0912,0.0911,0.0735,0.072,0.0708,0,0,0,0,0,0.0164,0.0151,0.0176,0.019,0.0307,0.0389,0.0413,0.0499,0.0527,0.0539,0.0606,0.0648,0.0768,0.0772,0.0792,0.0745,0.0915,0.0913,0.0911,0.0741,0.0723,0.0708,0,0,0,0,0,0,0.0084,0.0164,0.0194,0.0205,0.028,0.0407,0.0427,0.0489,0.0558,0.0559,0.065,0.067,0.0689,0.0753,0.0756,0.0776,0.0844,0.0846,0.0708,0.0692,0.0679,0.0629,0.0817,0,0,0,0,0,0.0061,0.0072,0.0165,0.0176,0.02,0.0311,0.0356,0.0415,0.0493,0.0525,0.0595,0.066,0.0701,0.0724,0.0782,0.0801,0.0858,0.0783,0.0769,0.0757,0.0732,0.0792,0.0781,0.0904,0.0904,0.0904,0,0,0.0033,0.0081,0.0086,0.016,0.0222,0.0243,0.0337,0.0391,0.0396,0.0527,0.0548,0.0621,0.0699,0.0712,0.0725,0.0755,0.0751,0.0755,0.0743,0.0725,0.0789,0.0777,0.0766,0.0902,0.0903,0.0903,0,0,-0.0015,0.0018,0.001,0.0062,0.0143,0.0197,0.0201,0.0311,0.0339,0.0389,0.0459,0.05,0.0593,0.062,0.0647,0.0599,0.0681,0.0619,0.0504,0.0562,0.0552,0.0544,0.0586,0.0583,0.0607,0.0607,0.0607,0,-0.0055,-0.0049,0.0023,0.0035,0.0058,0.0158,0.015,0.0193,0.0304,0.0307,0.0366,0.0475,0.0539,0.0529,0.0504,0.0561,0.0612,0.0551,0.0541,0.0534,0.0529,0.0575,0.0574,0.0598,0.0599,0.06,0.0601,0,-0.0097,-0.0094,-0.0096,-0.0068,-0.0038,-0.0021,0.0034,0.0051,0.01,0.0153,0.0178,0.0286,0.0345,0.0365,0.0418,0.0394,0.0448,0.0517,0.057,0.0504,0.0559,0.056,0.0585,0.0588,0.0591,0.0593,0,0,-0.0179,-0.0142,-0.0139,-0.0146,-0.0091,-0.007,-0.0102,-0.0093,-0.0116,-0.0021,-0.0026,0.0033,0.0105,0.0141,0.0218,0.0259,0.0258,0.0352,0.0359,0.0372,0.0376,0.0406,0.0413,0.0331,0.033,0.033,0.0423,0,-0.0236,-0.0255,-0.0222,-0.0255,-0.0268,-0.0216,-0.0251,-0.0232,-0.0202,-0.018,-0.0098,-0.0059,0.0012,0.0051,0.009,0.0249,0.0258,0.0225,0.0458,0.0463,0.0481,0.0414,0.0466,0.0554,0.0426,0.0427,0.0427,0,-0.0286,-0.0293,-0.0339,-0.0356,-0.036,-0.037,-0.0409,-0.0416,-0.0395,-0.0364,-0.0325,-0.0236,-0.0175,-0.0082,0.0083,0.0067,0.0172,0.0285,0.0294,0.0383,0.0497,0.0606,0.0564,0.071,0.0432,0.0431,0.0431,0,-0.0363,-0.0377,-0.0426,-0.042,-0.0425,-0.0455,-0.0464,-0.0471,-0.0495,-0.0467,-0.0447,-0.0366,-0.0267,-0.014,0.0072,0.0084,0.0282,0.0344,0.0447,0.0452,0.057,0.0585,0.0678,0.0405,0.0404,0.0404,0.0404,0,-0.0428,-0.046,-0.0459,-0.0475,-0.0539,-0.0516,-0.0585,-0.0588,-0.0589,-0.0614,-0.0532,-0.0495,-0.0272,-0.0128,0.0032,0.0252,0.0249,0.0398,0.0468,0.0508,0.0516,0.0712,0.0761,0.0408,0.0407,0.0406,0.0406,0,-0.0484,-0.0488,-0.0531,-0.0555,-0.0569,-0.06,-0.064,-0.0686,-0.0678,-0.0695,-0.0684,-0.0559,-0.0356,-0.0155,0.0104,0.0226,0.0512,0.0478,0.0496,0.0564,0.0785,0.0821,0.0947,0.1048,0.0603,0.0604,0.0605,0,-0.0507,-0.0539,-0.0578,-0.0604,-0.061,-0.0656,-0.0698,-0.0721,-0.0763,-0.073,-0.0729,-0.056,-0.0417,-0.0036,0.0217,0.0478,0.0581,0.0639,0.0648,0.0771,0.0866,0.0878,0.0955,0.0741,0.0743,0.0745,0.0746,0,-0.0543,-0.0556,-0.0585,-0.0646,-0.0688,-0.0746,-0.0797,-0.085,-0.0871,-0.0886,-0.0819,-0.0692,-0.0307,0.0055,0.0388,0.0534,0.0747,0.0678,0.0823,0.0967,0.0973,0.1114,0.0694,0.0761,0.0759,0.0758,0.0757,0.0757,-0.0552,-0.0578,-0.0617,-0.0676,-0.073,-0.0806,-0.0853,-0.0915,-0.0976,-0.095,-0.0831,-0.0522,-0.0037,0.047,0.0613,0.0933,0.0882,0.1044,0.1074,0.1072,0.1167,0.0746,0.0881,0.0881,0.088,0.0879,0.0879,0,-0.0555,-0.059,-0.0646,-0.0711,-0.0772,-0.0797,-0.0896,-0.0929,-0.0988,-0.0874,-0.0758,-0.0017,0.0385,0.0803,0.1194,0.1344,0.1379,0.1414,0.1467,0.1528,0.1192,0.1198,0.1387,0.1387,0.1387,0.1387,0.1386,0.1386,-0.0555,-0.0605,-0.0643,-0.0727,-0.0768,-0.0832,-0.088,-0.0926,-0.0851,-0.0542,-0.0068,0.0334,0.0979,0.1373,0.1689,0.1711,0.1873,0.1818,0.1907,0.17,0.1668,0.1639,0.1657,0.194,0.194,0.2266,0.2269,0.2271]}],[{"header":{"parameterUnit":"m.s-1","parameterCategory":2,"la1":30.2991,"la2":30.254,"lo1":-89.0895,"lo2":-89.0444,"dy":0.0017,"dx":0.0017,"nx":28,"ny":28,"refTime":"2024-08-14T21:00:00:Z","depth":"2","parameterNumber":2,"parameterNumberName":"U-component_of_CURRENTS"},"data":[0,0,0,0,0,0,0,0,0,0,0,0,0,0,0,0,0,0,0,0,0,0,0,0,0,0,0,0,0,0,0,0,0,0,0,0,0,0,0,0,0,0,0,0,0,0,0,0,0,0,0,0,0,0,0,0,0,0,-0.2854,-0.2854,0,-0.2875,-0.2875,-0.2875,-0.2805,-0.2803,-0.2801,-0.2799,-0.2697,-0.2696,-0.2695,0,0,0,0,0,0,0,0,0,0,0,0,0,-0.2793,-0.2794,-0.2854,-0.2854,-0.2855,-0.2875,-0.2875,-0.2875,-0.2805,-0.2803,-0.2801,-0.2798,-0.2697,-0.2696,-0.2695,0,0,0,0,0,0,0,0,0,0,0,0,0,-0.2815,-0.2794,-0.2854,-0.2824,-0.2822,-0.2875,-0.2875,-0.2875,-0.2806,-0.2803,-0.28,-0.2797,-0.2697,-0.2696,-0.2695,-0.2742,0,0,-0.269,-0.2689,0,0,0,0,0,0,0,0,-0.2813,-0.2816,-0.2828,-0.2827,-0.2824,-0.2837,-0.2817,-0.2826,-0.2806,-0.2809,-0.2799,-0.2796,-0.2736,-0.2731,-0.2739,-0.2737,-0.2732,-0.269,-0.2689,-0.2688,-0.2688,0,0,0,0,0,0,0,-0.2812,-0.2816,-0.2859,-0.2829,-0.2827,-0.2825,-0.2824,-0.2818,-0.2783,-0.2808,-0.2804,-0.2812,-0.2733,-0.2741,-0.2736,-0.2731,-0.269,-0.2689,-0.2688,-0.2687,-0.2742,-0.2744,0,0,0,0,0,0,-0.2817,-0.2814,-0.2859,-0.286,-0.2815,-0.2828,-0.2827,-0.2833,-0.2786,-0.2778,-0.2814,-0.2809,-0.2745,-0.2738,-0.2732,-0.2763,-0.2688,-0.2687,-0.2686,-0.274,-0.2743,-0.2745,0,0,0,0,0,0,-0.2815,-0.282,-0.2858,-0.284,-0.2845,-0.2832,-0.284,-0.2835,-0.2822,-0.2793,-0.2781,-0.2803,-0.2742,-0.2734,-0.2735,-0.2758,-0.2686,-0.2685,-0.2737,-0.2741,-0.2744,-0.2838,0,0,0,0,0,0,-0.2813,-0.282,-0.2821,-0.284,-0.2846,-0.2911,-0.2843,-0.2838,-0.2834,-0.2826,-0.278,-0.2768,-0.274,-0.2738,-0.2733,-0.2755,-0.2684,-0.2734,-0.2739,-0.2743,-0.2832,-0.2844,-0.2855,0,0,0,0,0,-0.2811,-0.2836,-0.2821,-0.2826,-0.285,-0.2915,-0.2919,-0.2897,-0.2836,-0.2865,-0.2821,-0.2769,-0.2762,-0.2739,-0.2733,-0.2755,-0.2732,-0.2737,-0.2743,-0.2827,-0.2842,-0.2855,0,0,0,0,0,0,-0.2811,-0.2832,-0.2816,-0.2844,-0.2884,-0.2904,-0.2921,-0.2896,-0.2886,-0.2855,-0.2801,-0.2791,-0.28,-0.2775,-0.275,-0.2787,-0.2738,-0.2742,-0.2804,-0.2818,-0.2829,-0.2806,-0.2683,0,0,0,0,0,-0.2815,-0.2833,-0.2865,-0.289,-0.2908,-0.2907,-0.2921,-0.2912,-0.2909,-0.2898,-0.2869,-0.2835,-0.2827,-0.2817,-0.2811,-0.2834,-0.2746,-0.2846,-0.2857,-0.2867,-0.2847,-0.2775,-0.2777,-0.2763,-0.2763,-0.2762,0,0,-0.2813,-0.2835,-0.2838,-0.2891,-0.2906,-0.2961,-0.2908,-0.2942,-0.2968,-0.289,-0.2903,-0.2875,-0.2843,-0.287,-0.2871,-0.2844,-0.282,-0.2874,-0.2882,-0.2856,-0.2781,-0.2781,-0.2782,-0.2766,-0.2766,-0.2765,0,0,-0.2853,-0.2851,-0.2887,-0.2929,-0.2973,-0.2991,-0.3,-0.3023,-0.3011,-0.3041,-0.298,-0.2963,-0.2967,-0.2943,-0.293,-0.3002,-0.2885,-0.3008,-0.3042,-0.2974,-0.2973,-0.2971,-0.2828,-0.2812,-0.3012,-0.3012,-0.3012,0,-0.2851,-0.2895,-0.2913,-0.2975,-0.3001,-0.3005,-0.3055,-0.3076,-0.3092,-0.3063,-0.3058,-0.3012,-0.2999,-0.2981,-0.3022,-0.3023,-0.2938,-0.299,-0.2984,-0.2981,-0.2977,-0.2831,-0.2813,-0.3017,-0.3017,-0.3016,-0.3016,0,-0.2934,-0.2959,-0.2992,-0.306,-0.3107,-0.3152,-0.3189,-0.3201,-0.3178,-0.3168,-0.3142,-0.3128,-0.3077,-0.31,-0.3089,-0.3065,-0.2994,-0.3005,-0.2939,-0.2984,-0.2827,-0.2806,-0.3025,-0.3023,-0.3021,-0.302,0,0,-0.2931,-0.3024,-0.3033,-0.3041,-0.314,-0.3169,-0.3229,-0.325,-0.3213,-0.3241,-0.3186,-0.3214,-0.3152,-0.3134,-0.3108,-0.308,-0.2998,-0.3045,-0.3039,-0.2881,-0.2778,-0.2687,-0.2654,-0.3007,-0.3005,-0.3004,-0.2665,0,-0.2976,-0.3078,-0.3122,-0.3182,-0.3219,-0.3238,-0.3282,-0.3293,-0.3281,-0.3241,-0.3204,-0.3163,-0.3183,-0.314,-0.3119,-0.3021,-0.2953,-0.3083,-0.2775,-0.2764,-0.2662,-0.2632,-0.2487,-0.2172,-0.2644,-0.264,-0.2638,0,-0.303,-0.3083,-0.3164,-0.318,-0.3194,-0.3239,-0.323,-0.3266,-0.3236,-0.3212,-0.3164,-0.3119,-0.306,-0.3088,-0.2911,-0.2988,-0.2887,-0.2823,-0.2808,-0.2671,-0.2636,-0.2213,-0.2115,-0.2601,-0.2604,-0.2607,-0.2609,0,-0.2996,-0.3081,-0.3128,-0.3154,-0.3217,-0.3213,-0.3236,-0.3238,-0.3201,-0.3172,-0.3105,-0.3048,-0.2957,-0.2878,-0.2751,-0.2815,-0.2534,-0.2591,-0.2394,-0.2382,-0.2169,-0.2144,-0.2455,-0.2455,-0.2456,-0.2457,-0.2458,0,-0.3009,-0.302,-0.3101,-0.312,-0.3108,-0.3177,-0.3137,-0.3145,-0.3116,-0.301,-0.3062,-0.2927,-0.2907,-0.275,-0.2682,-0.2434,-0.2451,-0.2356,-0.2293,-0.2198,-0.218,-0.2503,-0.2514,-0.2444,-0.2447,-0.2449,-0.2451,0,-0.2936,-0.3019,-0.3029,-0.3087,-0.309,-0.3075,-0.3056,-0.2999,-0.3018,-0.2876,-0.2853,-0.2776,-0.2572,-0.2511,-0.2323,-0.2278,-0.211,-0.2023,-0.1881,-0.1811,-0.201,-0.203,-0.1744,-0.1738,-0.1733,-0.1729,-0.1725,0,-0.2909,-0.2923,-0.2965,-0.2943,-0.2955,-0.2943,-0.2907,-0.2938,-0.2848,-0.2725,-0.2602,-0.244,-0.2251,-0.1971,-0.1868,-0.1682,-0.1848,-0.148,-0.1618,-0.1971,-0.1939,-0.1967,-0.1992,-0.1334,-0.1328,-0.1323,-0.1319,0,-0.2795,-0.2814,-0.2813,-0.2792,-0.2758,-0.2688,-0.2627,-0.253,-0.2497,-0.2409,-0.2173,-0.2044,-0.1804,-0.1555,-0.1407,-0.1312,-0.1525,-0.1367,-0.1712,-0.1585,-0.1571,-0.1546,-0.1586,-0.1271,-0.1276,-0.128,-0.1282,-0.1284,-0.266,-0.2623,-0.2622,-0.2576,-0.2532,-0.2367,-0.2226,-0.2155,-0.199,-0.1789,-0.1764,-0.1572,-0.1497,-0.1181,-0.1038,-0.0973,-0.1105,-0.1106,-0.1127,-0.1153,-0.1214,-0.1199,-0.0833,-0.0835,-0.0837,-0.0838,-0.084,0,-0.2457,-0.243,-0.2389,-0.2296,-0.2123,-0.22,-0.1979,-0.1818,-0.1572,-0.1482,-0.1338,-0.1106,-0.0913,-0.0871,-0.0672,-0.0622,-0.0677,-0.062,-0.0708,-0.0751,-0.0791,-0.0843,-0.0357,-0.0356,-0.0355,-0.0354,0,0,-0.2347,-0.2235,-0.2228,-0.1908,-0.1829,-0.1565,-0.1394,-0.1258,-0.1138,-0.0947,-0.088,-0.0906,-0.0857,-0.0634,-0.0541,-0.0418,-0.06,-0.0391,-0.0771,-0.0919,-0.0959,-0.105,-0.1174,0,0,0,0,0]},{"header":{"parameterUnit":"m.s-1","parameterCategory":2,"la1":30.2991,"la2":30.254,"lo1":-89.0895,"lo2":-89.0444,"dy":0.0017,"dx":0.0017,"nx":28,"ny":28,"refTime":"2024-08-14T21:00:00:Z","depth":"2","parameterNumber":3,"parameterNumberName":"V-component_of_CURRENTS"},"data":[0,0,0,0,0,0,0,0,0,0,0,0,0,0,0,0,0,0,0,0,0,0,0,0,0,0,0,0,0,0,0,0,0,0,0,0,0,0,0,0,0,0,0,0,0,0,0,0,0,0,0,0,0,0,0,0,0,0,0.013,0.013,0,0.02,0.0201,0.0202,0.022,0.0219,0.0219,0.0218,0.0285,0.0287,0.0289,0,0,0,0,0,0,0,0,0,0,0,0,0,0.0083,0.0084,0.013,0.013,0.0131,0.02,0.0201,0.0202,0.022,0.0219,0.0219,0.0218,0.0284,0.0287,0.0289,0,0,0,0,0,0,0,0,0,0,0,0,0,0.0126,0.0084,0.013,0.0146,0.0148,0.02,0.0201,0.0203,0.022,0.0219,0.0218,0.0217,0.0283,0.0286,0.029,0.0333,0,0,0.0301,0.0303,0,0,0,0,0,0,0,0,0.0123,0.0128,0.0143,0.0145,0.0147,0.0198,0.0209,0.0245,0.0221,0.0196,0.0218,0.0217,0.0254,0.026,0.028,0.0336,0.0339,0.0301,0.0304,0.0305,0.0306,0,0,0,0,0,0,0,0.012,0.0125,0.016,0.0144,0.0146,0.0174,0.0179,0.0216,0.0232,0.0198,0.0199,0.0202,0.0255,0.0276,0.0281,0.034,0.0301,0.0304,0.0307,0.0308,0.047,0.0472,0,0,0,0,0,0,0.0103,0.0122,0.0158,0.0162,0.0129,0.0176,0.0181,0.0185,0.0232,0.0237,0.0203,0.0203,0.0271,0.0277,0.0284,0.0335,0.0305,0.0308,0.0311,0.0468,0.047,0.0473,0,0,0,0,0,0,0.0102,0.0106,0.0155,0.0142,0.0149,0.0177,0.0182,0.0187,0.0193,0.0235,0.0241,0.0202,0.027,0.0279,0.0321,0.0337,0.031,0.0313,0.0465,0.0469,0.0472,0.0438,0,0,0,0,0,0,0.01,0.0105,0.0099,0.014,0.0149,0.018,0.0183,0.0189,0.0197,0.0197,0.0237,0.0243,0.027,0.0316,0.0325,0.0342,0.0316,0.0463,0.0467,0.0471,0.0437,0.044,0.0443,0,0,0,0,0,0.0099,0.0088,0.0099,0.0103,0.0141,0.018,0.0188,0.0206,0.0197,0.0206,0.0239,0.0241,0.0348,0.032,0.033,0.0348,0.0461,0.0466,0.047,0.0435,0.0439,0.0443,0,0,0,0,0,0,0.006,0.0091,0.0102,0.01,0.0136,0.0181,0.0181,0.0198,0.0232,0.0222,0.0261,0.0271,0.0316,0.0346,0.0314,0.0413,0.0408,0.0415,0.0378,0.0382,0.0385,0.0363,0.0319,0,0,0,0,0,0.0051,0.0051,0.0095,0.0093,0.0105,0.0142,0.0156,0.0172,0.0207,0.0219,0.0252,0.0297,0.035,0.0372,0.0418,0.0466,0.0461,0.0491,0.0494,0.0496,0.049,0.0545,0.0551,0.0488,0.0488,0.0488,0,0,0.0031,0.005,0.0048,0.0085,0.0107,0.0134,0.0148,0.0162,0.0194,0.0222,0.0264,0.0302,0.0365,0.0422,0.0446,0.0443,0.0497,0.0502,0.0503,0.0495,0.0551,0.0556,0.0561,0.0492,0.0491,0.0491,0,0,-0.0007,0.0013,0.0,0.0034,0.0067,0.0109,0.011,0.0156,0.0183,0.0233,0.0267,0.0319,0.0387,0.0446,0.0483,0.0536,0.051,0.0546,0.0541,0.0595,0.06,0.0604,0.0528,0.0526,0.055,0.0549,0.0549,0,-0.0035,-0.0036,0.0005,0.0013,0.004,0.0095,0.0107,0.0156,0.0214,0.024,0.024,0.0361,0.0408,0.0494,0.0511,0.0541,0.0516,0.0512,0.0594,0.0599,0.0604,0.0526,0.0524,0.0548,0.0549,0.0549,0.0549,0,-0.0071,-0.0066,-0.0069,-0.003,0.0016,0.0029,0.011,0.0148,0.0186,0.0234,0.0309,0.0385,0.0444,0.0486,0.0509,0.0577,0.0523,0.0584,0.0571,0.0607,0.0523,0.0522,0.0547,0.0547,0.0548,0.0548,0,0,-0.0158,-0.0108,-0.0111,-0.0094,-0.0008,0.0023,0.0091,0.0168,0.0197,0.0271,0.0311,0.0426,0.0437,0.0482,0.0529,0.059,0.058,0.0585,0.0589,0.048,0.0588,0.0638,0.064,0.0648,0.065,0.0651,0.0485,0,-0.0206,-0.0203,-0.0148,-0.0121,-0.0106,-0.0012,0.0052,0.0135,0.0204,0.0258,0.0354,0.0406,0.0447,0.0458,0.0526,0.0579,0.0587,0.0612,0.0595,0.0592,0.0612,0.0647,0.066,0.0525,0.0483,0.0483,0.0483,0,-0.0268,-0.0248,-0.0241,-0.0164,-0.0148,-0.0111,-0.0004,0.0058,0.0169,0.0209,0.028,0.0338,0.0413,0.0456,0.0531,0.0533,0.0538,0.0581,0.0577,0.0642,0.0645,0.0503,0.0523,0.048,0.048,0.048,0.0481,0,-0.0355,-0.0314,-0.0308,-0.0283,-0.0183,-0.0157,-0.0094,0.0026,0.0073,0.0161,0.0177,0.0284,0.0308,0.0386,0.0457,0.0476,0.0527,0.0569,0.06,0.0596,0.0617,0.0617,0.061,0.061,0.061,0.0611,0.0611,0,-0.0427,-0.0429,-0.0359,-0.0358,-0.0339,-0.0234,-0.0198,-0.0125,-0.0031,-0.0006,0.0119,0.0137,0.03,0.0356,0.0417,0.0491,0.0481,0.0587,0.0592,0.06,0.0601,0.0598,0.0599,0.0604,0.0606,0.0607,0.0608,0,-0.0537,-0.0494,-0.0491,-0.0411,-0.039,-0.0378,-0.0284,-0.0252,-0.0162,-0.0133,-0.012,0.0005,0.0083,0.0231,0.034,0.0424,0.0509,0.0528,0.0466,0.0473,0.0517,0.0518,0.0519,0.052,0.0521,0.0522,0.0523,0,-0.0598,-0.0608,-0.0557,-0.0554,-0.053,-0.0492,-0.0461,-0.0347,-0.0317,-0.0231,-0.0239,-0.0138,-0.0059,0.0125,0.0316,0.044,0.0468,0.0507,0.0611,0.052,0.0524,0.0524,0.0524,0.0553,0.0553,0.0554,0.0555,0,-0.0704,-0.069,-0.0681,-0.0673,-0.0658,-0.0625,-0.0582,-0.0587,-0.0475,-0.0425,-0.0375,-0.0297,-0.0094,0.012,0.0337,0.0414,0.0514,0.0528,0.0474,0.0619,0.0554,0.0557,0.0555,0.0561,0.0561,0.056,0.056,0.0559,-0.0789,-0.0809,-0.0791,-0.0784,-0.0763,-0.0753,-0.0748,-0.0693,-0.0648,-0.0553,-0.0491,-0.0319,-0.0105,0.0251,0.0385,0.0539,0.0542,0.0603,0.06,0.0596,0.0675,0.0623,0.0646,0.0646,0.0646,0.0646,0.0645,0,-0.0873,-0.0877,-0.0887,-0.0869,-0.0862,-0.0821,-0.0809,-0.078,-0.0741,-0.0596,-0.0475,-0.0233,0.003,0.0239,0.0501,0.0644,0.0629,0.0658,0.063,0.0625,0.0619,0.07,0.0676,0.0676,0.0676,0.0676,0,0,-0.0914,-0.0947,-0.0938,-0.0947,-0.0935,-0.0921,-0.0923,-0.086,-0.0745,-0.0591,-0.0414,-0.0193,0.007,0.0257,0.0444,0.0576,0.0554,0.0576,0.0546,0.0489,0.0481,0.0592,0.0711,0,0,0,0,0]}],[{"header":{"parameterUnit":"m.s-1","parameterCategory":2,"la1":30.2991,"la2":30.254,"lo1":-89.0895,"lo2":-89.0444,"dy":0.0017,"dx":0.0017,"nx":28,"ny":28,"refTime":"2024-08-14T21:00:00:Z","depth":"4","parameterNumber":2,"parameterNumberName":"U-component_of_CURRENTS"},"data":[0,0,0,0,0,0,0,0,0,0,0,0,0,0,0,0,0,0,0,0,0,0,0,0,0,0,0,0,0,0,0,0,0,0,0,0,0,0,0,0,0,0,0,0,0,0,0,0,0,0,0,0,0,0,0,0,0,0,-0.1037,-0.1039,0,-0.1134,-0.1135,-0.1136,-0.1165,-0.1165,-0.1165,-0.1165,-0.1248,-0.125,-0.1252,0,0,0,0,0,0,0,0,0,0,0,0,0,-0.0952,-0.0953,-0.1037,-0.1039,-0.104,-0.1134,-0.1135,-0.1136,-0.1165,-0.1165,-0.1165,-0.1165,-0.1247,-0.125,-0.1252,0,0,0,0,0,0,0,0,0,0,0,0,0,-0.1009,-0.0953,-0.1037,-0.1069,-0.1073,-0.1134,-0.1135,-0.1136,-0.1165,-0.1165,-0.1165,-0.1165,-0.1246,-0.1249,-0.1253,-0.1277,0,0,-0.1263,-0.1265,0,0,0,0,0,0,0,0,-0.1006,-0.1011,-0.1063,-0.1067,-0.1072,-0.1141,-0.1136,-0.1184,-0.1165,-0.1126,-0.1165,-0.1165,-0.1214,-0.122,-0.1233,-0.1281,-0.1285,-0.1264,-0.1266,-0.1267,-0.1268,0,0,0,0,0,0,0,-0.1001,-0.1008,-0.1071,-0.1065,-0.107,-0.1105,-0.1112,-0.1145,-0.1166,-0.113,-0.1133,-0.115,-0.1215,-0.1229,-0.1235,-0.1286,-0.1264,-0.1267,-0.1269,-0.127,-0.1437,-0.144,0,0,0,0,0,0,-0.0994,-0.1004,-0.1068,-0.1075,-0.1042,-0.1107,-0.1114,-0.1116,-0.1166,-0.1175,-0.115,-0.1151,-0.1223,-0.1231,-0.1238,-0.1341,-0.1267,-0.127,-0.1272,-0.1435,-0.1438,-0.144,0,0,0,0,0,0,-0.0992,-0.0998,-0.1065,-0.1046,-0.1057,-0.1108,-0.111,-0.1118,-0.1147,-0.1183,-0.1191,-0.1173,-0.1224,-0.1233,-0.1306,-0.1341,-0.1272,-0.1275,-0.1432,-0.1436,-0.1439,-0.1501,0,0,0,0,0,0,-0.0988,-0.0996,-0.0998,-0.1045,-0.1058,-0.1105,-0.1111,-0.112,-0.1159,-0.1161,-0.1205,-0.1212,-0.1224,-0.1301,-0.1309,-0.1345,-0.1278,-0.1429,-0.1434,-0.1438,-0.1496,-0.1506,-0.1515,0,0,0,0,0,-0.0985,-0.1007,-0.0997,-0.1006,-0.1057,-0.1106,-0.1116,-0.1149,-0.116,-0.1174,-0.1226,-0.1211,-0.1334,-0.1306,-0.1315,-0.1352,-0.1427,-0.1433,-0.1438,-0.1492,-0.1504,-0.1515,0,0,0,0,0,0,-0.0972,-0.1014,-0.1004,-0.1035,-0.1062,-0.1113,-0.1147,-0.1159,-0.121,-0.1226,-0.1248,-0.126,-0.1336,-0.134,-0.1308,-0.1415,-0.1375,-0.1383,-0.1413,-0.1425,-0.1434,-0.1401,-0.1281,0,0,0,0,0,-0.0966,-0.0996,-0.1023,-0.1048,-0.1067,-0.1103,-0.113,-0.115,-0.1202,-0.1224,-0.1261,-0.1309,-0.1363,-0.139,-0.1433,-0.1493,-0.1471,-0.1522,-0.1531,-0.1539,-0.1521,-0.1513,-0.1519,-0.1458,-0.1458,-0.1458,0,0,-0.0969,-0.0998,-0.1012,-0.1048,-0.1079,-0.1113,-0.1119,-0.1173,-0.1209,-0.1227,-0.1304,-0.1347,-0.1389,-0.1464,-0.1496,-0.1472,-0.1556,-0.1546,-0.1552,-0.1529,-0.1519,-0.1524,-0.1529,-0.1462,-0.1461,-0.146,0,0,-0.0997,-0.1013,-0.1041,-0.1069,-0.1118,-0.1143,-0.1158,-0.1214,-0.1247,-0.132,-0.1352,-0.141,-0.1493,-0.1525,-0.1552,-0.1636,-0.1609,-0.1663,-0.1682,-0.1677,-0.168,-0.1683,-0.17,-0.1704,-0.1664,-0.1664,-0.1664,0,-0.1,-0.1024,-0.1058,-0.1092,-0.1124,-0.1155,-0.1188,-0.1231,-0.1305,-0.1334,-0.1353,-0.1471,-0.1514,-0.1583,-0.1632,-0.1653,-0.1655,-0.1635,-0.1685,-0.1687,-0.1689,-0.1705,-0.1708,-0.1668,-0.1667,-0.1667,-0.1667,0,-0.1034,-0.1059,-0.1091,-0.1134,-0.1171,-0.1215,-0.1266,-0.1313,-0.136,-0.1391,-0.1474,-0.1536,-0.1595,-0.1632,-0.167,-0.1717,-0.172,-0.1699,-0.1646,-0.1698,-0.1714,-0.1716,-0.1673,-0.1672,-0.1671,-0.167,0,0,-0.103,-0.1097,-0.111,-0.1123,-0.1197,-0.1229,-0.1304,-0.1359,-0.1388,-0.1466,-0.1505,-0.162,-0.1639,-0.1671,-0.1715,-0.1721,-0.1771,-0.173,-0.1728,-0.173,-0.1783,-0.1619,-0.1606,-0.1761,-0.1761,-0.1761,-0.1802,0,-0.1042,-0.1095,-0.1139,-0.1193,-0.1214,-0.1276,-0.1331,-0.139,-0.1441,-0.1489,-0.155,-0.1608,-0.1659,-0.1695,-0.172,-0.1757,-0.1774,-0.1763,-0.1746,-0.1746,-0.1577,-0.16,-0.1761,-0.1803,-0.1803,-0.1804,-0.1804,0,-0.1056,-0.1083,-0.1133,-0.1194,-0.1213,-0.1258,-0.1331,-0.1389,-0.1461,-0.1495,-0.1554,-0.1598,-0.1673,-0.1681,-0.1752,-0.1749,-0.1779,-0.1787,-0.1788,-0.16,-0.1582,-0.1733,-0.1807,-0.1807,-0.1806,-0.1806,-0.1806,0,-0.1012,-0.1086,-0.1122,-0.1146,-0.1218,-0.1263,-0.1317,-0.1389,-0.1429,-0.1497,-0.1517,-0.1593,-0.1644,-0.1678,-0.1746,-0.1759,-0.178,-0.1789,-0.1663,-0.1655,-0.1764,-0.1759,-0.1803,-0.1803,-0.1803,-0.1803,-0.1803,0,-0.1001,-0.1028,-0.1104,-0.1116,-0.1155,-0.1235,-0.1268,-0.1336,-0.1404,-0.1444,-0.1522,-0.1552,-0.1644,-0.1684,-0.173,-0.1696,-0.1773,-0.1652,-0.1636,-0.1798,-0.1797,-0.1767,-0.1762,-0.1804,-0.1804,-0.1804,-0.1804,0,-0.0951,-0.0999,-0.1035,-0.1112,-0.1133,-0.1173,-0.1241,-0.1264,-0.1341,-0.1396,-0.1428,-0.1538,-0.1573,-0.1624,-0.1675,-0.1655,-0.164,-0.1608,-0.1789,-0.1786,-0.1536,-0.1535,-0.1471,-0.1465,-0.146,-0.1456,-0.1452,0,-0.0921,-0.0934,-0.102,-0.1026,-0.1065,-0.1105,-0.113,-0.1224,-0.1256,-0.1382,-0.1416,-0.1476,-0.1529,-0.1468,-0.1529,-0.1529,-0.1519,-0.1517,-0.1513,-0.1502,-0.1494,-0.1501,-0.1506,-0.1444,-0.1443,-0.1442,-0.144,0,-0.0846,-0.09,-0.0932,-0.0956,-0.0989,-0.1008,-0.1067,-0.1077,-0.1205,-0.1278,-0.1346,-0.136,-0.1373,-0.1389,-0.1366,-0.1386,-0.1514,-0.1466,-0.1477,-0.1473,-0.1469,-0.1468,-0.1479,-0.1423,-0.1426,-0.1427,-0.1428,0,-0.0797,-0.0801,-0.0848,-0.0873,-0.0902,-0.0922,-0.0955,-0.1001,-0.1049,-0.1216,-0.1236,-0.13,-0.1379,-0.1314,-0.1317,-0.1275,-0.1269,-0.1257,-0.1279,-0.1299,-0.1213,-0.1181,-0.1015,0,0,0,0,0,-0.0737,-0.0725,-0.074,-0.0765,-0.0807,-0.0831,-0.0916,-0.0962,-0.1085,-0.1103,-0.1166,-0.1176,-0.1163,-0.1195,-0.1113,-0.1215,-0.126,-0.1114,-0.1255,-0.1328,-0.1348,-0.1257,0,0,0,0,0,0,-0.0679,-0.069,-0.0707,-0.0678,-0.0679,-0.0718,-0.0778,-0.0876,-0.0881,-0.1011,-0.0999,-0.1088,-0.1074,-0.1176,-0.1082,-0.1085,-0.1147,-0.1148,-0.1145,-0.1316,-0.1334,-0.135,-0.1264,0,0,0,0,0]},{"header":{"parameterUnit":"m.s-1","parameterCategory":2,"la1":30.2991,"la2":30.254,"lo1":-89.0895,"lo2":-89.0444,"dy":0.0017,"dx":0.0017,"nx":28,"ny":28,"refTime":"2024-08-14T21:00:00:Z","depth":"4","parameterNumber":3,"parameterNumberName":"V-component_of_CURRENTS"},"data":[0,0,0,0,0,0,0,0,0,0,0,0,0,0,0,0,0,0,0,0,0,0,0,0,0,0,0,0,0,0,0,0,0,0,0,0,0,0,0,0,0,0,0,0,0,0,0,0,0,0,0,0,0,0,0,0,0,0,-0.0347,-0.0346,0,-0.0311,-0.0311,-0.031,-0.0283,-0.0283,-0.0282,-0.0282,-0.0263,-0.0263,-0.0263,0,0,0,0,0,0,0,0,0,0,0,0,0,-0.0353,-0.0354,-0.0347,-0.0346,-0.0345,-0.0311,-0.0311,-0.031,-0.0284,-0.0283,-0.0282,-0.0282,-0.0263,-0.0263,-0.0263,0,0,0,0,0,0,0,0,0,0,0,0,0,-0.034,-0.0354,-0.0347,-0.0326,-0.0324,-0.0311,-0.0311,-0.031,-0.0284,-0.0283,-0.0282,-0.0282,-0.0263,-0.0263,-0.0263,-0.0276,0,0,-0.0262,-0.0262,0,0,0,0,0,0,0,0,-0.0341,-0.034,-0.033,-0.0327,-0.0325,-0.0299,-0.0305,-0.0299,-0.0284,-0.0302,-0.0282,-0.0281,-0.0275,-0.0274,-0.0272,-0.0275,-0.0274,-0.0262,-0.0262,-0.0262,-0.0262,0,0,0,0,0,0,0,-0.0342,-0.0341,-0.0335,-0.0329,-0.0326,-0.0305,-0.0303,-0.0304,-0.0295,-0.03,-0.0297,-0.0289,-0.0274,-0.0272,-0.0272,-0.0274,-0.0262,-0.0262,-0.0262,-0.0262,-0.0318,-0.032,0,0,0,0,0,0,-0.0344,-0.0342,-0.0336,-0.0334,-0.0328,-0.0305,-0.0303,-0.031,-0.0295,-0.0291,-0.029,-0.0288,-0.0273,-0.0272,-0.0271,-0.0297,-0.0262,-0.0262,-0.0262,-0.0317,-0.0319,-0.032,0,0,0,0,0,0,-0.0344,-0.0344,-0.0338,-0.0334,-0.0331,-0.0306,-0.0314,-0.0309,-0.0306,-0.0286,-0.0283,-0.029,-0.0272,-0.0271,-0.0276,-0.0295,-0.0262,-0.0262,-0.0315,-0.0317,-0.032,-0.0342,0,0,0,0,0,0,-0.0345,-0.0345,-0.0356,-0.0335,-0.0332,-0.0342,-0.0314,-0.0309,-0.0301,-0.0298,-0.0286,-0.0283,-0.0272,-0.0277,-0.0276,-0.0295,-0.0262,-0.0313,-0.0316,-0.0319,-0.0339,-0.0345,-0.0349,0,0,0,0,0,-0.0346,-0.0357,-0.0357,-0.0356,-0.0346,-0.0343,-0.0341,-0.032,-0.0302,-0.0312,-0.0298,-0.0283,-0.0296,-0.0277,-0.0277,-0.0295,-0.0312,-0.0315,-0.0319,-0.0337,-0.0344,-0.0349,0,0,0,0,0,0,-0.0366,-0.0355,-0.0354,-0.0363,-0.0361,-0.0338,-0.0337,-0.0324,-0.0321,-0.0314,-0.0295,-0.0292,-0.0306,-0.0304,-0.0284,-0.0325,-0.0305,-0.0309,-0.032,-0.0326,-0.0331,-0.0347,-0.0262,0,0,0,0,0,-0.0377,-0.0383,-0.0373,-0.0383,-0.0381,-0.0362,-0.0357,-0.0346,-0.0335,-0.0331,-0.0325,-0.0322,-0.0322,-0.0324,-0.0328,-0.0345,-0.029,-0.0363,-0.0368,-0.0372,-0.0387,-0.0315,-0.0313,-0.0332,-0.0332,-0.0332,0,0,-0.0386,-0.0381,-0.0385,-0.0387,-0.0379,-0.0391,-0.0358,-0.0354,-0.0365,-0.0331,-0.0348,-0.0337,-0.0331,-0.0349,-0.0357,-0.0347,-0.0331,-0.0376,-0.0379,-0.0393,-0.0318,-0.0316,-0.0314,-0.0334,-0.0334,-0.0334,0,0,-0.0406,-0.0406,-0.0419,-0.0421,-0.0415,-0.0409,-0.0411,-0.04,-0.0396,-0.0412,-0.0386,-0.0387,-0.04,-0.0393,-0.0391,-0.0431,-0.0359,-0.0438,-0.0475,-0.0404,-0.0401,-0.0398,-0.0283,-0.0269,-0.0442,-0.0442,-0.0442,0,-0.0416,-0.0435,-0.0423,-0.0437,-0.0443,-0.0421,-0.0442,-0.0438,-0.0434,-0.0432,-0.0427,-0.0434,-0.0423,-0.043,-0.0447,-0.0441,-0.0371,-0.0444,-0.0406,-0.0402,-0.0398,-0.0282,-0.0267,-0.0443,-0.0443,-0.0443,-0.0443,0,-0.0448,-0.0464,-0.0469,-0.0487,-0.0498,-0.0506,-0.0504,-0.0513,-0.0507,-0.0499,-0.051,-0.0498,-0.0497,-0.05,-0.0486,-0.0469,-0.0414,-0.0412,-0.038,-0.0397,-0.0274,-0.0257,-0.0446,-0.0445,-0.0445,-0.0444,0,0,-0.0454,-0.0486,-0.0487,-0.0509,-0.0522,-0.0535,-0.0556,-0.0565,-0.0563,-0.0575,-0.0576,-0.0587,-0.0564,-0.0563,-0.0541,-0.0499,-0.0394,-0.0451,-0.0446,-0.0318,-0.0191,-0.0225,-0.0209,-0.0372,-0.037,-0.0369,-0.0098,0,-0.0479,-0.0524,-0.0532,-0.0578,-0.0603,-0.06,-0.0623,-0.0629,-0.0619,-0.0615,-0.0601,-0.0595,-0.059,-0.0579,-0.0538,-0.0436,-0.036,-0.0466,-0.0212,-0.0204,-0.0217,-0.0196,-0.0365,-0.0085,-0.0082,-0.0079,-0.0077,0,-0.0505,-0.0533,-0.0588,-0.0629,-0.0638,-0.0668,-0.0689,-0.07,-0.0683,-0.067,-0.0659,-0.0628,-0.0583,-0.0573,-0.04,-0.046,-0.0331,-0.0249,-0.0236,-0.0259,-0.0211,-0.0078,-0.0046,-0.0048,-0.0051,-0.0053,-0.0055,0,-0.0522,-0.0568,-0.0617,-0.0632,-0.0677,-0.0703,-0.0724,-0.0722,-0.0719,-0.0692,-0.0676,-0.062,-0.0575,-0.0447,-0.0299,-0.0321,-0.0087,-0.0082,0.0019,0.0022,-0.0014,-0.0021,0.0062,0.0062,0.0061,0.006,0.006,0,-0.0539,-0.0575,-0.0633,-0.0658,-0.0712,-0.0735,-0.0764,-0.0767,-0.0754,-0.0734,-0.0701,-0.0659,-0.0541,-0.0407,-0.0271,-0.0079,-0.0044,0.002,0.0076,-0.0025,-0.0037,0.0002,-0.0008,0.0071,0.0068,0.0066,0.0065,0,-0.0547,-0.0583,-0.0641,-0.0702,-0.0725,-0.0764,-0.0796,-0.08,-0.0785,-0.0754,-0.0743,-0.065,-0.0473,-0.0337,-0.0098,-0.0031,0.0147,0.0216,0.0131,0.0178,0.022,0.0205,0.0376,0.0377,0.0378,0.0378,0.0379,0,-0.0559,-0.0592,-0.0671,-0.0709,-0.0741,-0.0792,-0.0818,-0.0821,-0.0811,-0.0734,-0.0714,-0.056,-0.0479,-0.0151,-0.003,0.0233,0.0243,0.0346,0.0232,0.0208,0.0247,0.023,0.0215,0.038,0.038,0.038,0.038,0,-0.0576,-0.0606,-0.0652,-0.0725,-0.0775,-0.0813,-0.0845,-0.0834,-0.0806,-0.079,-0.0642,-0.0503,-0.031,-0.0119,0.0068,0.0244,0.0266,0.0353,0.0353,0.0246,0.0214,0.0248,0.0232,0.0382,0.0382,0.0382,0.0382,0,-0.0588,-0.0616,-0.0674,-0.0736,-0.0798,-0.0823,-0.0835,-0.0799,-0.0777,-0.0689,-0.0623,-0.0437,-0.0325,-0.0106,0.0071,0.0216,0.0244,0.0268,0.0272,0.0271,0.0107,0.0042,0.0215,0,0,0,0,0,-0.059,-0.0616,-0.0677,-0.0746,-0.0805,-0.0834,-0.0848,-0.0844,-0.0806,-0.0694,-0.0655,-0.0467,-0.0215,-0.0109,0.0042,0.0053,0.024,0.0227,0.0262,0.0395,0.0392,0.0205,0,0,0,0,0,0,-0.0588,-0.0642,-0.0668,-0.0741,-0.0785,-0.0837,-0.0843,-0.0818,-0.0747,-0.0684,-0.0536,-0.0459,-0.0208,-0.029,0.0039,0.0079,0.0113,0.0346,0.0348,0.0396,0.0394,0.0392,0.0199,0,0,0,0,0]}]]